Date String (YYYY-MM-DD hh:mm:ss) UTC,Instrument flags,Ambient pressure (hPa),Sample flow (lpm),Bypass flow (lpm),Sample temperature (°C),Ambient temperature (°C),ASC tube jacket temperature (°C),LED temperature (°C),Box temperature (°C),Sample RH (%),Span deviation,Mass concentration (μg/m³),Mass concentration (μg/m³),Mass concentration (μg/m³)
DateTimeUTC,F1_M11,P_M11,Q1_M11,Q2_M11,T1_M11,T2_M11,T3_M11,T4_M11,T5_M11,U1_M11,ZSPAN_M11,X0_M11,X2_M11,X1_M11
2022-01-16 04:00:00,,0826.5,5.00,0.00,23.5,22.9,00.0,32.6,25.3,04.0,0000.0,0001.98,0001.43,0001.27
2022-01-16 04:01:00,,0826.5,5.00,0.00,23.6,22.9,00.0,32.5,25.3,04.0,0000.0,0001.91,0001.38,0001.23
2022-01-16 04:02:00,,0826.5,5.00,0.00,23.6,22.9,00.0,32.5,25.3,04.0,0000.0,0001.84,0001.32,0001.18
2022-01-16 04:03:00,,0826.5,5.00,0.00,23.6,22.9,00.0,32.5,25.4,04.0,0000.0,0001.82,0001.26,0001.11
2022-01-16 04:04:00,,0826.5,5.00,0.00,23.6,22.9,00.0,32.5,25.4,04.1,0000.0,0002.68,0001.22,0001.06
2022-01-16 04:05:00,,0826.5,5.00,0.00,23.6,22.9,00.0,32.5,25.4,04.4,0000.0,0002.92,0001.18,0001.02
2022-01-16 04:06:00,,0826.5,5.01,0.00,23.6,22.9,00.0,32.5,25.4,04.3,0000.0,0002.88,0001.16,0000.99
2022-01-16 04:07:00,,0826.5,5.00,0.00,23.6,23.0,00.0,32.6,25.4,04.2,0000.0,0002.86,0001.12,0000.97
2022-01-16 04:08:00,,0826.5,5.01,0.00,23.6,23.0,00.0,32.6,25.4,04.1,0000.0,0002.87,0001.08,0000.94
2022-01-16 04:09:00,,0826.5,4.99,0.00,23.6,23.0,00.0,32.6,25.5,04.2,0000.0,0002.84,0001.05,0000.92
2022-01-16 04:10:00,,0826.5,5.00,0.00,23.6,23.0,00.0,32.6,25.5,04.2,0000.0,0002.78,0001.05,0000.92
2022-01-16 04:11:00,,0826.5,4.98,0.00,23.6,23.0,00.0,32.6,25.5,04.1,0000.0,0002.68,0001.06,0000.94
2022-01-16 04:12:00,,0826.6,5.02,0.00,23.7,23.0,00.0,32.6,25.5,04.1,0000.0,0002.71,0001.08,0000.95
2022-01-16 04:13:00,,0826.6,4.99,0.00,23.7,23.0,00.0,32.6,25.5,04.0,0000.0,0002.73,0001.10,0000.96
2022-01-16 04:14:00,,0826.6,5.00,0.00,23.7,23.0,00.0,32.6,25.5,04.0,0000.0,0002.69,0001.09,0000.97
2022-01-16 04:15:00,,0826.6,5.00,0.00,23.7,23.0,00.0,32.6,25.5,04.0,0000.0,0002.16,0001.09,0000.97
2022-01-16 04:16:00,,0826.6,4.99,0.00,23.7,23.0,00.0,32.6,25.5,04.0,0000.0,0001.41,0001.05,0000.94
2022-01-16 04:17:00,,0826.6,5.00,0.00,23.7,23.1,00.0,32.6,25.5,04.0,0000.0,0001.34,0001.01,0000.92
2022-01-16 04:18:00,,0826.6,5.00,0.00,23.7,23.1,00.0,32.6,25.5,04.0,0000.0,0001.29,0000.98,0000.90
2022-01-16 04:19:00,,0826.6,4.99,0.00,23.7,23.1,00.0,32.6,25.5,04.0,0000.0,0001.21,0000.97,0000.89
2022-01-16 04:20:00,,0826.6,5.01,0.00,23.7,23.0,00.0,32.6,25.5,04.1,0000.0,0001.20,0000.97,0000.88
2022-01-16 04:21:00,,0826.6,4.99,0.00,23.7,23.0,00.0,32.6,25.5,04.1,0000.0,0001.19,0000.96,0000.87
2022-01-16 04:22:00,,0826.5,5.00,0.00,23.7,23.0,00.0,32.6,25.5,04.1,0000.0,0001.26,0000.98,0000.87
2022-01-16 04:23:00,,0826.5,5.00,0.00,23.7,23.0,00.0,32.6,25.4,04.1,0000.0,0001.27,0000.97,0000.86
2022-01-16 04:24:00,,0826.5,5.01,0.00,23.6,22.9,00.0,32.6,25.4,04.4,0000.0,0001.34,0001.01,0000.88
2022-01-16 04:25:00,,0826.5,5.00,0.00,23.6,22.9,00.0,32.6,25.3,04.5,0000.0,0001.49,0001.10,0000.93
2022-01-16 04:26:00,,0826.5,4.99,0.00,23.6,22.9,00.0,32.6,25.4,04.6,0000.0,0001.53,0001.15,0000.99
2022-01-16 04:27:00,,0826.5,4.99,0.00,23.6,22.9,00.0,32.6,25.4,04.6,0000.0,0001.60,0001.22,0001.06
2022-01-16 04:28:00,,0826.5,5.00,0.00,23.6,22.9,00.0,32.6,25.4,04.6,0000.0,0001.73,0001.31,0001.12
2022-01-16 04:29:00,,0826.5,5.00,0.00,23.6,22.9,00.0,32.6,25.4,04.7,0000.0,0001.83,0001.39,0001.20
2022-01-16 04:30:00,,0826.5,5.00,0.00,23.6,23.0,00.0,32.6,25.5,04.8,0000.0,0001.91,0001.46,0001.26
2022-01-16 04:31:00,,0826.5,5.00,0.00,23.6,23.0,00.0,32.6,25.5,04.8,0000.0,0001.99,0001.54,0001.34
2022-01-16 04:32:00,,0826.5,5.00,0.00,23.7,23.0,00.0,32.6,25.5,04.9,0000.0,0002.08,0001.63,0001.41
2022-01-16 04:33:00,,0826.5,5.00,0.00,23.7,23.0,00.0,32.6,25.4,05.1,0000.0,0002.21,0001.76,0001.51
2022-01-16 04:34:00,,0826.5,4.98,0.00,23.6,23.0,00.0,32.6,25.4,04.8,0000.0,0002.30,0001.86,0001.61
2022-01-16 04:35:00,,0826.5,5.01,0.00,23.6,22.9,00.0,32.6,25.4,04.9,0000.0,0002.52,0001.91,0001.66
2022-01-16 04:36:00,,0826.3,5.00,0.00,23.6,22.9,00.0,32.6,25.3,04.4,0000.0,0003.50,0001.87,0001.67
2022-01-16 04:37:00,,0826.4,5.01,0.00,23.6,22.9,00.0,32.6,25.3,04.3,0000.0,0003.45,0001.82,0001.62
2022-01-16 04:38:00,,0826.4,4.99,0.00,23.6,22.9,00.0,32.6,25.3,04.4,0000.0,0003.59,0001.80,0001.58
2022-01-16 04:39:00,,0826.4,5.00,0.00,23.6,22.8,00.0,32.6,25.3,04.2,0000.0,0003.50,0001.73,0001.52
2022-01-16 04:40:00,,0826.4,5.01,0.00,23.6,22.9,00.0,32.6,25.3,04.3,0000.0,0003.39,0001.66,0001.47
2022-01-16 04:41:00,,0826.3,5.00,0.00,23.6,22.9,00.0,32.5,25.3,04.3,0000.0,0003.32,0001.60,0001.40
2022-01-16 04:42:00,,0826.3,4.99,0.00,23.5,22.8,00.0,32.5,25.3,04.2,0000.0,0003.23,0001.51,0001.32
2022-01-16 04:43:00,,0826.2,5.00,0.00,23.5,22.8,00.0,32.5,25.3,04.0,0000.0,0003.08,0001.38,0001.22
2022-01-16 04:44:00,,0826.3,5.00,0.00,23.5,22.8,00.0,32.5,25.3,04.0,0000.0,0002.95,0001.25,0001.10
2022-01-16 04:45:00,,0826.3,4.99,0.00,23.5,22.8,00.0,32.5,25.3,04.2,0000.0,0002.73,0001.08,0000.96
2022-01-16 04:46:00,,0826.4,5.01,0.00,23.5,22.8,00.0,32.5,25.2,04.2,0000.0,0002.58,0000.97,0000.88
2022-01-16 04:47:00,,0826.3,4.99,0.00,23.5,22.7,00.0,32.5,25.2,04.2,0000.0,0001.28,0000.86,0000.77
2022-01-16 04:48:00,,0826.4,5.00,0.00,23.4,22.7,00.0,32.5,25.1,04.4,0000.0,0001.23,0000.84,0000.73
2022-01-16 04:49:00,,0826.3,5.00,0.00,23.4,22.6,00.0,32.5,25.1,04.4,0000.0,0001.02,0000.78,0000.69
2022-01-16 04:50:00,,0826.2,4.99,0.00,23.4,22.6,00.0,32.5,25.1,04.5,0000.0,0001.11,0000.77,0000.66
2022-01-16 04:51:00,,0826.2,5.01,0.00,23.4,22.6,00.0,32.4,25.1,04.5,0000.0,0001.16,0000.75,0000.65
2022-01-16 04:52:00,,0826.2,4.98,0.00,23.4,22.7,00.0,32.4,25.1,04.2,0000.0,0001.13,0000.71,0000.61
2022-01-16 04:53:00,,0826.2,5.01,0.00,23.4,22.7,00.0,32.4,25.1,04.1,0000.0,0001.14,0000.70,0000.58
2022-01-16 04:54:00,,0826.2,5.00,0.00,23.4,22.7,00.0,32.4,25.2,04.1,0000.0,0001.14,0000.69,0000.57
2022-01-16 04:55:00,,0826.1,4.98,0.00,23.4,22.8,00.0,32.4,25.2,04.1,0000.0,0001.07,0000.65,0000.55
2022-01-16 04:56:00,,0826.1,5.01,0.00,23.4,22.8,00.0,32.4,25.2,04.1,0000.0,0001.03,0000.63,0000.53
2022-01-16 04:57:00,,0826.1,4.99,0.00,23.5,22.8,00.0,32.4,25.2,04.1,0000.0,0001.05,0000.62,0000.51
2022-01-16 04:58:00,,0826.1,5.01,0.00,23.5,22.8,00.0,32.4,25.3,04.2,0000.0,0001.12,0000.62,0000.51
2022-01-16 04:59:00,,0826.1,4.99,0.00,23.5,22.8,00.0,32.4,25.3,04.4,0000.0,0001.06,0000.60,0000.51
